[keps] orb12047.2l.amsat
Ray Hoad
ray.hoad at mypbmail.com
Thu Feb 16 19:11:40 PST 2012
SB KEPS @ AMSAT $ORB12047.N
2Line Orbital Elements 12047.AMSAT
HR AMSAT ORBITAL ELEMENTS FOR AMATEUR SATELLITES IN NASA FORMAT
FROM WA5QGD FORT WORTH,TX February 16, 2012
Send SUBSCRIBE KEPS/UNSUBSCRIBE KEPS to majordomo at amsat.org only
BID: ORB12047.N
DECODE 2-LINE ELSETS WITH THE FOLLOWING KEY:
1 AAAAAU 00 0 0 BBBBB.BBBBBBBB .CCCCCCCC 00000-0 00000-0 0 DDDZ
2 AAAAA EEE.EEEE FFF.FFFF GGGGGGG HHH.HHHH III.IIII JJ.JJJJJJJJKKKKKZ
KEY: A-CATALOGNUM B-EPOCHTIME C-DECAY D-ELSETNUM E-INCLINATION F-RAAN
G-ECCENTRICITY H-ARGPERIGEE I-MNANOM J-MNMOTION K-ORBITNUM Z-CHECKSUM
TO ALL RADIO AMATEURS BT
AO-07
1 07530U 74089B 12046.56395926 -.00000027 00000-0 10000-3 0 03090
2 07530 101.3997 048.5278 0011920 162.0250 198.1243 12.53587647704681
FO-29
1 24278U 96046B 12046.87148346 -.00000047 00000-0 -95979-5 0 07852
2 24278 098.5749 163.5824 0350767 346.1550 013.0158 13.52976112765416
SO-33
1 25509U 98061B 12046.70937487 .00000122 00000-0 99501-5 0 01685
2 25509 031.4360 306.7496 0352758 211.7131 146.1789 14.28668956695125
RS-22
1 27939U 03042A 12047.74704503 .00000488 00000-0 10176-3 0 903
2 27939 097.8224 254.7244 0012493 291.7009 068.2871 14.63899896448112
VO-52
1 28650U 05017B 12046.91559534 .00000483 00000-0 65716-4 0 00285
2 28650 097.6128 083.7886 0027837 082.4672 277.9733 14.82671442366857
HO-68
1 36122U 09072B 12047.67952976 -.00000044 00000-0 00000 0 0 2044
2 36122 100.3798 109.4029 0007588 029.0499 331.1034 13.16293070104406
UO-11
1 14781U 84021B 12047.86253731 .00000424 00000-0 62599-4 0 7909
2 14781 097.9704 108.3634 0010119 067.9622 292.2663 14.80310306501987
AO-16
1 20439U 90005D 12047.86182278 .00000091 00000-0 49596-4 0 3988
2 20439 098.4167 354.7179 0011243 154.3636 205.8105 14.32017155152637
LO-19
1 20442U 90005G 12046.85542169 .00000104 00000-0 54242-4 0 03247
2 20442 098.3820 357.1826 0012373 150.0830 210.1064 14.32237722152677
AO-27
1 22825U 93061C 12047.59103240 .00000147 00000-0 74738-4 0 330
2 22825 098.5623 352.3791 0007575 277.0046 083.0272 14.29429955959100
IO-26
1 22826U 93061D 12046.84522969 .00000075 00000-0 46025-4 0 07932
2 22826 098.5568 352.0501 0008088 274.4365 085.5893 14.29700000959121
GO-32
1 25397U 98043D 12046.65212591 -.00000072 00000-0 -13851-4 0 07063
2 25397 098.3514 031.4742 0000430 312.6122 047.5018 14.23256476706595
NO-44
1 26931U 01043C 12046.55588887 -.00000150 00000-0 -26052-4 0 09713
2 26931 067.0523 076.3919 0006251 276.6384 083.3987 14.29759425541715
SO-50
1 27607U 02058C 12046.70269083 .00000441 00000-0 87680-4 0 06905
2 27607 064.5599 307.4521 0085167 272.4092 086.7276 14.72214062491938
CO-55
1 27844U 03031E 12046.54404546 .00000154 00000-0 91077-4 0 03124
2 27844 098.7051 056.7006 0008981 215.0211 145.0380 14.20960943447474
CO-57
1 27848U 03031J 12046.52659344 .00000127 00000-0 79169-4 0 02604
2 27848 098.7139 055.9660 0008803 217.9654 142.0898 14.20720903447412
AO-51
1 28375U 04025K 12046.93466489 .00000152 00000-0 57981-4 0 01969
2 28375 098.1298 018.0044 0084775 051.3238 309.5481 14.40895075401169
CP3
1 31129U 07012N 12046.77909748 .00000301 00000-0 78592-4 0 00945
2 31129 097.8879 061.7606 0101609 143.3735 217.4392 14.52886230256207
CO-65
1 32785U 08021C 12046.90400964 .00000722 00000-0 95787-4 0 02311
2 32785 097.8168 110.7849 0015809 100.6406 259.6571 14.82681578205648
PRISM
1 33493U 09002B 12047.65459028 .00001820 00000-0 22921-3 0 4317
2 33493 098.1512 185.5176 0018518 333.9221 026.1063 14.83195034165737
SOHLA-1
1 33496U 09002E 12046.84787072 .00000303 00000-0 58977-4 0 06579
2 33496 098.0930 159.4919 0007677 071.6879 288.5152 14.69866047164271
SO-67
1 35870U 09049F 12047.72344950 .00003034 00000-0 13278-3 0 6882
2 35870 097.2493 087.7313 0000910 191.4224 270.6904 15.22779353134124
TISAT-1
1 36799U 10035E 12047.78821335 .00001178 00000-0 15691-3 0 7040
2 36799 098.0729 123.2251 0014576 201.3130 158.7523 14.81514340 86512
STUDSAT
1 36801U 10035G 12046.93840199 .00003131 00000-0 39057-3 0 03396
2 36801 098.0792 122.6215 0012974 191.4953 168.5967 14.83097546086394
FO-69
1 37227U 0 12046.04422040 .00000330 00000-0 54773-4 0 01033
2 37227 071.9672 223.6606 0017759 195.0744 164.9889 14.76923927017912
FO-70
1 37380U 0 12046.50349291 .00000331 00000-0 55150-4 0 01064
2 37380 071.9705 223.0530 0018152 191.1227 168.9536 14.76682035017870
NOAA-10
1 16969U 86073A 12046.64226349 -.00000031 00000-0 50066-5 0 08192
2 16969 098.5952 077.8006 0011580 231.3121 128.7017 14.27526888322382
NOAA-11
1 19531U 88089A 12046.81141848 -.00000146 00000-0 -53257-4 0 08178
2 19531 098.7360 134.5269 0010444 211.3178 148.7375 14.14951757207200
NOAA-12
1 21263U 91032A 12046.98506415 .00000017 00000-0 25812-4 0 03208
2 21263 098.7382 069.1712 0013268 193.0811 167.0027 14.25477387079144
MET-3/5
1 21655U 91056A 12046.84036168 .00000051 00000-0 10000-3 0 03397
2 21655 082.5535 238.6125 0012274 268.7852 091.1803 13.17034678985790
MET-2/21
1 22782U 93055A 12047.74492670 -.00000077 00000-0 -82775-4 0 3393
2 22782 082.5489 128.8729 0023683 130.6855 229.6372 13.83676923932379
OKEAN-4
1 23317U 94066A 12047.84014613 .00000987 00000-0 11645-3 0 8063
2 23317 082.5422 144.6278 0022633 036.2086 324.0655 14.83585609936815
NOAA-14
1 23455U 94089A 12046.90425916 .00000074 00000-0 62387-4 0 07986
2 23455 098.8333 131.9195 0008951 312.2752 047.7658 14.13876806883515
NOAA-15
1 25338U 98030A 12046.60615126 .00000008 00000-0 22030-4 0 01431
2 25338 098.6813 034.7357 0011561 104.3251 255.9201 14.25029175715392
RESURS
1 25394U 98043A 12046.95417920 .00000004 00000-0 19225-4 0 00265
2 25394 098.3116 041.6791 0000493 226.3068 133.8072 14.24273083707006
FENGYUN1
1 25730U 99025A 12046.89695482 .00001103 00000-0 65813-3 0 05476
2 25730 098.8374 008.0781 0020763 355.7063 004.3917 14.09234938657385
OKEAN-0
1 25860U 99039A 12047.89715734 .00000367 00000-0 63218-4 0 5489
2 25860 097.9194 013.1403 0000582 048.4022 311.7237 14.74084676676706
NOAA-16
1 26536U 00055A 12046.58209373 .00000281 00000-0 17618-3 0 06277
2 26536 099.1116 086.7211 0011238 070.3744 289.8631 14.12706027587722
NOAA-17
1 27453U 02032A 12046.86787936 -.00000073 00000-0 -13920-4 0 05992
2 27453 098.3510 080.0106 0012238 151.7035 208.4808 14.24392404501348
NOAA-18
1 28654U 05018A 12046.72833972 .00000262 00000-0 16901-3 0 00758
2 28654 099.0321 003.8977 0014862 136.9382 223.2962 14.11604372347287
NOAA-19
1 33591U 09005A 12046.70876719 -.00000077 00000-0 -18299-4 0 02647
2 33591 098.8540 348.0869 0014364 011.1482 349.0006 14.11292335155734
HUBBLE
1 20580U 90037B 12046.82577986 .00001290 00000-0 83076-4 0 9449
2 20580 028.4681 224.0934 0003442 192.6736 167.3883 15.02183651996313
ISS
1 25544U 98067A 12047.97101807 .00013413 00000-0 17394-3 0 245
2 25544 051.6426 010.0328 0020654 051.7038 071.9608 15.58964144759112
CO-58
1 28895U 05043F 12047.61899627 .00000688 00000-0 15078-3 0 1006
2 28895 097.9347 279.1187 0018133 169.6628 190.4976 14.60483965335915
FALCON
1 30776U 07006E 12046.89804953 .00002857 00000-0 19163-3 0 2825
2 30776 035.4340 303.2499 0002790 001.4887 358.5838 15.06612864271795
MAST
1 31126U 07012K 12047.56346372 .00000270 00000-0 70379-4 0 3851
2 31126 097.8792 065.7619 0094583 129.2066 231.7575 14.54032341256590
CAPE1
1 31130U 07012P 12045.98039344 .00000403 00000-0 10186-3 0 03989
2 31130 097.8893 060.7413 0102538 146.4258 214.3516 14.52767013255880
COMPASS
1 32787U 08021E 12047.68147536 .00002090 00000-0 25988-3 0 2249
2 32787 097.8153 111.6630 0016532 098.7091 261.5991 14.83514019205793
AAUSAT2
1 32788U 08021F 12047.81067720 .00001958 00000-0 24228-3 0 2160
2 32788 097.8171 112.1081 0016260 097.0192 263.2889 14.83792528205835
DO-64
1 32789U 08021G 12047.69654800 .00003273 00000-0 38966-3 0 2311
2 32789 097.8271 113.5950 0016044 096.4983 263.8076 14.84944795205849
CO-66
1 32791U 08021J 12047.82930179 .00001479 00000-0 18795-3 0 2184
2 32791 097.8173 111.6375 0016849 096.7828 263.5277 14.83017591205751
RS-30
1 32953U 08025A 12047.83304171 .00000010 00000-0 00000 0 0 5286
2 32953 082.5036 010.5953 0017746 210.3256 149.6803 12.43020880169482
TACSAT-3
1 35001U 09028A 12046.57211859 .00085206 00000-0 58496-3 0 08680
2 35001 040.4482 115.5473 0006690 107.6709 252.4855 15.73597272155044
PHARMSAT
1 35002U 09028B 12047.54031043 .00047003 00000-0 46230-3 0 7971
2 35002 040.4666 113.8230 0005974 253.6730 106.3653 15.65115106155159
METEOR-M
1 35865U 09049A 12047.69026758 -.00000017 00000-0 12240-4 0 1530
2 35865 098.6716 104.2039 0003263 050.3207 309.8256 14.21855680125333
RS-38
1 35869U 09049E 12047.65851990 .00000014 00000-0 25788-4 0 1575
2 35869 098.6685 104.1867 0005342 049.9760 310.1881 14.22054344125347
JUGNU
1 37839U 11058B 12046.28181088 .00000619 00000-0 19019-3 0 00905
2 37839 019.9630 022.7870 0018856 311.3264 048.5464 14.12025143017859
SRMSAT
1 37841U 11058D 12046.94774270 .00000264 00000-0 00000-0 0 00905
2 37841 019.9738 021.2501 0012162 287.1734 072.7385 14.10114898017925
RAX-2
1 37853U 11061D 12047.92749147 .00006742 00000-0 54629-3 0 991
2 37853 101.7135 033.0097 0250927 336.2906 022.6894 14.78860318 16466
AUBIESAT
1 37854U 11061E 12046.89569174 .00007039 00000-0 56422-3 0 1003
2 37854 101.7157 031.6095 0251320 338.7205 020.3707 14.79143175 16307
HRBE
1 37855U 11061F 12047.91412398 .00007136 00000-0 57074-3 0 1005
2 37855 101.7174 033.0814 0252259 335.8281 023.1254 14.79067853 16458
RS-39
1 38051U 11062C 12047.74907715 .00007675 00000-0 34237-3 0 696
2 38051 051.6519 017.5897 0011502 328.6140 093.7832 15.22273063 3462
/EX
More information about the Keps
mailing list